Simultaneous Nadir Overpasses (SNOs) Predictions

Prediction of SNOs between AQUA and METOP-A Satellite Orbit:

Table of predicted SNOs for the next 14.0 days since TLE Epoch: 6/12/2020
Index Date (AQUA) Time (AQUA) Lat,Lon (AQUA) SZA (AQUA ) Date (METOP-A) Time (METOP-A) Lat,Lon (METOP-A) SZA (METOP-A ) Distance(km) Time Diff (sec)
1 06/13/2020 06:09:21 -76.26,-104.35 126.71 06/13/2020 06:08:28 -76.26,-104.39 126.69 1.00 53
2 06/13/2020 06:58:49 76.32, 63.10 53.36 06/13/2020 06:59:07 76.31, 63.11 53.34 1.29 18
3 06/16/2020 01:43:37 -76.30, -38.05 126.77 06/16/2020 01:42:49 -76.30, -37.90 126.77 4.12 48
4 06/16/2020 02:33:04 76.32, 129.54 53.25 06/16/2020 02:33:28 76.34, 129.59 53.27 3.16 24
5 06/18/2020 21:17:51 -76.31, 28.38 126.83 06/18/2020 21:17:10 -76.29, 28.43 126.83 1.93 41
6 06/18/2020 22:07:18 76.32,-164.04 53.20 06/18/2020 22:07:49 76.34,-164.09 53.20 1.83 31
7 06/21/2020 16:52:06 -76.31, 94.80 126.82 06/21/2020 16:51:31 -76.33, 94.91 126.80 3.48 35
8 06/21/2020 17:41:33 76.33, -97.63 53.21 06/21/2020 17:42:11 76.32, -97.77 53.20 3.89 38
9 06/24/2020 12:26:21 -76.33, 161.20 126.76 06/24/2020 12:25:53 -76.32, 161.23 126.76 1.08 28
10 06/24/2020 13:15:48 76.35, -31.24 53.28 06/24/2020 13:16:32 76.36, -31.30 53.28 1.88 44




NCC Satellite Simultaneous Nadir Overpasses (SNOs) Prediction Service
